Location: Tyumen
(57.1527°N, 65.5323°E)
Time: 03:42:40
(UTC+05:00)

ISS - Pass Details

Date: 13 July 2025
Orbit: 413 x 417 km, 51.6° (Epoch: 13 July)

Event Time Altitude Azimuth Distance (km) Brightness Sun altitude
Rises 23:28:37 0° 262° (W) 2,355 0.2 -9.6°
Reaches altitude 10° 23:30:51 10° 251° (WSW) 1,492 -1.0 -9.7°
Maximum altitude 23:33:49 29° 189° (S) 786 -2.9 -9.8°
Drops below altitude 10° 23:36:47 10° 126° (SE) 1,492 -1.4 -9.9°
Enters shadow 23:36:54 - 126° (SE) 1,535 -1.4 -9.9°
